• In Hungary
  • List of Countries
  • For 7 days
  • Water Temperature
  • Satellite Maps
  • Weather Map
  • News
  • Weather Widgets
  • user-avatar
    Login

    Hourly Weather Apaevo

    Today, 23 October, Tuesday

    Time Temperature Precipitation Wind Pressure Humidity
    00:00 +4°C° 0 mm 4 mps 754 mmHg 86%
    01:00 +4°C° 0 mm 4 mps 753 mmHg 88%
    02:00 +4°C° 0 mm 4 mps 753 mmHg 90%
    03:00 +4°C° 0 mm 3 mps 752 mmHg 93%
    04:00 +4°C° 0 mm 4 mps 751 mmHg 93%
    05:00 +5°C° 0 mm 4 mps 751 mmHg 92%
    06:00 +6°C° 0 mm 4 mps 750 mmHg 92%
    07:00 +6°C° 0.1 mm 4 mps 750 mmHg 91%
    08:00 +7°C° 0.1 mm 4 mps 749 mmHg 91%
    09:00 +7°C° 0.1 mm 5 mps 748 mmHg 90%
    10:00 +7°C° 1.2 mm 5 mps 748 mmHg 90%
    11:00 +7°C° 1.2 mm 5 mps 747 mmHg 90%
    12:00 +8°C° 1.2 mm 6 mps 747 mmHg 90%
    13:00 +7°C° 1.1 mm 5 mps 746 mmHg 90%
    14:00 +7°C° 1.1 mm 5 mps 745 mmHg 90%
    15:00 +7°C° 1.1 mm 4 mps 745 mmHg 90%
    16:00 +7°C° 0.6 mm 4 mps 744 mmHg 91%
    17:00 +6°C° 0.6 mm 4 mps 744 mmHg 91%
    18:00 +7°C° 0.6 mm 3 mps 744 mmHg 92%
    19:00 +5°C° 0.1 mm 3 mps 743 mmHg 91%
    20:00 +5°C° 0.1 mm 3 mps 743 mmHg 91%
    21:00 +4°C° 0.1 mm 3 mps 743 mmHg 90%
    22:00 +4°C° 0 mm 3 mps 743 mmHg 89%
    23:00 +4°C° 0 mm 3 mps 742 mmHg 89%

    Tomorrow, 24 October, Wednesday

    Time Temperature Precipitation Wind Pressure Humidity
    00:00 +4°C° 0 mm 3 mps 742 mmHg 88%
    01:00 +3°C° 0 mm 3 mps 742 mmHg 89%
    02:00 +3°C° 0 mm 3 mps 742 mmHg 89%
    03:00 +3°C° 0 mm 3 mps 742 mmHg 90%
    04:00 +3°C° 0 mm 3 mps 741 mmHg 90%
    05:00 +3°C° 0 mm 3 mps 741 mmHg 90%
    06:00 +3°C° 0 mm 3 mps 741 mmHg 91%
    07:00 +3°C° 0 mm 4 mps 741 mmHg 87%
    08:00 +4°C° 0 mm 4 mps 740 mmHg 84%
    09:00 +3°C° 0 mm 5 mps 740 mmHg 81%
    10:00 +5°C° 0 mm 5 mps 740 mmHg 77%
    11:00 +6°C° 0 mm 5 mps 740 mmHg 73%
    12:00 +7°C° 0 mm 5 mps 740 mmHg 69%
    13:00 +7°C° 0 mm 5 mps 740 mmHg 70%
    14:00 +7°C° 0 mm 4 mps 740 mmHg 70%
    15:00 +7°C° 0 mm 4 mps 739 mmHg 71%
    16:00 +7°C° 0.1 mm 4 mps 739 mmHg 73%
    17:00 +6°C° 0.1 mm 4 mps 739 mmHg 76%
    18:00 +6°C° 0.1 mm 4 mps 739 mmHg 78%
    19:00 +6°C° 0.5 mm 4 mps 739 mmHg 79%
    20:00 +6°C° 0.5 mm 4 mps 738 mmHg 80%
    21:00 +6°C° 0.5 mm 5 mps 738 mmHg 81%
    22:00 +6°C° 1 mm 5 mps 738 mmHg 83%
    23:00 +7°C° 1 mm 5 mps 737 mmHg 86%

    Day after tomorrow, 25 October, Thursday

    Time Temperature Precipitation Wind Pressure Humidity
    00:00 +7°C° 1 mm 5 mps 737 mmHg 88%
    01:00 +7°C° 0.4 mm 4 mps 737 mmHg 89%
    02:00 +7°C° 0.4 mm 4 mps 737 mmHg 90%
    03:00 +7°C° 0.4 mm 4 mps 737 mmHg 90%
    04:00 +7°C° 0.1 mm 4 mps 736 mmHg 91%
    05:00 +7°C° 0.1 mm 4 mps 736 mmHg 92%
    06:00 +8°C° 0.1 mm 4 mps 736 mmHg 93%
    07:00 +8°C° 0.4 mm 5 mps 735 mmHg 92%
    08:00 +9°C° 0.4 mm 5 mps 735 mmHg 91%
    09:00 +9°C° 0.4 mm 6 mps 734 mmHg 89%
    10:00 +9°C° 0.7 mm 6 mps 734 mmHg 88%
    11:00 +9°C° 0.7 mm 6 mps 733 mmHg 88%
    12:00 +10°C° 0.7 mm 6 mps 732 mmHg 87%
    13:00 +10°C° 0.4 mm 6 mps 732 mmHg 86%
    14:00 +10°C° 0.4 mm 6 mps 732 mmHg 86%
    15:00 +11°C° 0.4 mm 6 mps 732 mmHg 85%
    16:00 +10°C° 0.9 mm 6 mps 732 mmHg 84%
    17:00 +9°C° 0.9 mm 6 mps 732 mmHg 83%
    18:00 +8°C° 0.9 mm 5 mps 733 mmHg 82%
    19:00 +7°C° 0.2 mm 5 mps 733 mmHg 81%
    20:00 +7°C° 0.2 mm 5 mps 734 mmHg 80%
    21:00 +6°C° 0.2 mm 4 mps 734 mmHg 79%
    22:00 +6°C° 0 mm 4 mps 734 mmHg 80%
    23:00 +5°C° 0 mm 4 mps 734 mmHg 80%

    26 October, Friday

    Time Temperature Precipitation Wind Pressure Humidity
    00:00 +4°C° 0 mm 4 mps 734 mmHg 80%
    01:00 +4°C° 0 mm 4 mps 734 mmHg 80%
    02:00 +4°C° 0 mm 4 mps 734 mmHg 81%
    03:00 +3°C° 0 mm 4 mps 735 mmHg 82%
    04:00 +3°C° 0 mm 4 mps 735 mmHg 83%
    05:00 +3°C° 0 mm 4 mps 735 mmHg 84%
    06:00 +3°C° 0 mm 4 mps 735 mmHg 86%
    07:00 +2°C° 0 mm 5 mps 736 mmHg 84%
    08:00 +2°C° 0 mm 5 mps 736 mmHg 82%
    09:00 +2°C° 0 mm 5 mps 737 mmHg 80%
    10:00 +3°C° 0 mm 5 mps 737 mmHg 76%
    11:00 +3°C° 0 mm 5 mps 737 mmHg 73%
    12:00 +3°C° 0 mm 5 mps 738 mmHg 69%
    13:00 +3°C° 0 mm 5 mps 738 mmHg 68%
    14:00 +3°C° 0 mm 5 mps 739 mmHg 67%
    15:00 +3°C° 0 mm 5 mps 739 mmHg 67%
    16:00 +2°C° 0 mm 5 mps 739 mmHg 70%
    17:00 +3°C° 0 mm 4 mps 740 mmHg 73%
    18:00 +1°C° 0 mm 4 mps 740 mmHg 76%
    19:00 +1°C° 0 mm 4 mps 741 mmHg 77%
    20:00 0°C° 0 mm 4 mps 741 mmHg 79%
    21:00 +1°C° 0 mm 3 mps 741 mmHg 80%
    22:00 +1°C° 0 mm 3 mps 742 mmHg 80%
    23:00 0°C° 0 mm 4 mps 742 mmHg 79%

    27 October, Saturday

    Time Temperature Precipitation Wind Pressure Humidity
    00:00 0°C° 0 mm 4 mps 742 mmHg 79%
    01:00 0°C° 0 mm 4 mps 742 mmHg 81%
    02:00 -1°C° 0 mm 4 mps 743 mmHg 83%
    03:00 -1°C° 0 mm 4 mps 743 mmHg 86%
    04:00 -1°C° 0 mm 4 mps 743 mmHg 87%
    05:00 -1°C° 0 mm 4 mps 743 mmHg 88%
    06:00 -2°C° 0 mm 4 mps 744 mmHg 89%
    07:00 -1°C° 0 mm 4 mps 744 mmHg 87%
    08:00 0°C° 0 mm 5 mps 744 mmHg 85%
    09:00 0°C° 0 mm 5 mps 745 mmHg 83%
    10:00 0°C° 0 mm 5 mps 745 mmHg 81%
    11:00 +1°C° 0 mm 5 mps 746 mmHg 79%
    12:00 +1°C° 0 mm 5 mps 746 mmHg 76%
    13:00 +1°C° 0 mm 5 mps 747 mmHg 74%
    14:00 +1°C° 0 mm 5 mps 747 mmHg 72%
    15:00 +1°C° 0 mm 5 mps 748 mmHg 70%
    16:00 +1°C° 0 mm 4 mps 748 mmHg 73%
    17:00 0°C° 0 mm 4 mps 748 mmHg 75%
    18:00 0°C° 0 mm 4 mps 748 mmHg 78%
    19:00 0°C° 0 mm 4 mps 748 mmHg 80%
    20:00 0°C° 0 mm 4 mps 748 mmHg 83%
    21:00 -1°C° 0 mm 4 mps 747 mmHg 85%
    22:00 0°C° 0 mm 4 mps 747 mmHg 83%
    23:00 +1°C° 0 mm 5 mps 746 mmHg 80%

    28 October, Sunday

    Time Temperature Precipitation Wind Pressure Humidity
    00:00 +1°C° 0 mm 6 mps 745 mmHg 77%
    01:00 +2°C° 1.2 mm 6 mps 744 mmHg 79%
    02:00 +2°C° 1.2 mm 6 mps 743 mmHg 81%
    03:00 +2°C° 1.2 mm 6 mps 743 mmHg 83%
    04:00 +3°C° 0.9 mm 6 mps 742 mmHg 84%
    05:00 +4°C° 0.9 mm 6 mps 742 mmHg 85%
    06:00 +4°C° 0.9 mm 6 mps 742 mmHg 87%
    07:00 +4°C° 0 mm 6 mps 742 mmHg 85%
    08:00 +4°C° 0 mm 6 mps 742 mmHg 84%
    09:00 +5°C° 0 mm 6 mps 742 mmHg 83%
    10:00 +5°C° 0.1 mm 6 mps 743 mmHg 80%
    11:00 +5°C° 0.1 mm 7 mps 743 mmHg 77%
    12:00 +5°C° 0.1 mm 7 mps 743 mmHg 74%
    13:00 +4°C° 0.1 mm 7 mps 744 mmHg 72%
    14:00 +4°C° 0.1 mm 7 mps 745 mmHg 71%
    15:00 +4°C° 0.1 mm 7 mps 745 mmHg 69%
    16:00 +3°C° 0 mm 7 mps 746 mmHg 71%
    17:00 +3°C° 0 mm 7 mps 747 mmHg 72%
    18:00 +2°C° 0 mm 7 mps 748 mmHg 74%
    19:00 +2°C° 0 mm 6 mps 749 mmHg 74%
    20:00 +2°C° 0 mm 6 mps 750 mmHg 74%
    21:00 +1°C° 0 mm 6 mps 751 mmHg 74%
    22:00 +1°C° 0 mm 5 mps 752 mmHg 75%
    23:00 0°C° 0 mm 5 mps 753 mmHg 77%

    29 October, Monday

    Time Temperature Precipitation Wind Pressure Humidity
    00:00 0°C° 0 mm 4 mps 754 mmHg 78%
    01:00 -1°C° 0 mm 4 mps 755 mmHg 80%
    02:00 -1°C° 0 mm 4 mps 756 mmHg 82%
    03:00 -1°C° 0 mm 3 mps 757 mmHg 84%
    04:00 -1°C° 0 mm 3 mps 757 mmHg 85%
    05:00 -1°C° 0 mm 3 mps 758 mmHg 86%
    06:00 -1°C° 0 mm 3 mps 758 mmHg 86%
    07:00 -1°C° 0 mm 3 mps 759 mmHg 84%
    08:00 +1°C° 0 mm 2 mps 759 mmHg 82%
    09:00 +1°C° 0 mm 2 mps 760 mmHg 80%
    10:00 +2°C° 0 mm 2 mps 760 mmHg 76%
    11:00 +3°C° 0 mm 2 mps 761 mmHg 72%
    12:00 +3°C° 0 mm 2 mps 762 mmHg 67%
    13:00 +4°C° 0 mm 1 mps 762 mmHg 69%
    14:00 +4°C° 0 mm 1 mps 762 mmHg 70%
    15:00 +4°C° 0 mm 1 mps 762 mmHg 72%
    16:00 +4°C° 0 mm 1 mps 762 mmHg 73%
    17:00 +3°C° 0 mm 1 mps 762 mmHg 75%
    18:00 +3°C° 0 mm 1 mps 763 mmHg 77%
    19:00 +3°C° 0 mm 1 mps 763 mmHg 78%
    20:00 +3°C° 0 mm 1 mps 763 mmHg 80%
    21:00 +3°C° 0 mm 1 mps 763 mmHg 82%
    22:00 +3°C° 0.1 mm 1 mps 763 mmHg 83%
    23:00 +3°C° 0.1 mm 1 mps 763 mmHg 84%
    Show more